This demonstration page uses our WeatherBlox Daily Observations layout. Learn more.

38.88101, -77.10428

Hourly Observations for September 22, 2015

Temp ( °F °C ) Dew Point ( °F °C ) Humidity (%) Winds ( mph kmh ) Pressure ( in mb ) Visibility ( mi km ) Precip ( " mm )
12:52 am 00:52 Cloudy 63 17.2 59 15 87 87 NNE 9 15 30.21 1023 10 16.0934 0 0
1:52 am 01:52 Cloudy 63 17.2 59 15 87 87 NE 12 19 30.19 1022 10 16.0934 0 0
2:52 am 02:52 Cloudy 63 17.2 59 15 87 87 NNE 8 13 30.19 1022 10 16.0934 0 0
3:52 am 03:52 Cloudy 63 17.2 58 14.4 84 84 NNE 8 13 30.19 1023 10 16.0934 0 0
4:52 am 04:52 Cloudy 63 17.2 57 13.9 81 81 NNE 9 15 30.19 1022 10 16.0934 0 0
5:52 am 05:52 Cloudy 63 17.2 57 13.9 81 81 NNE 10 17 30.19 1023 10 16.0934 0 0
6:52 am 06:52 Cloudy 62 16.7 57 13.9 84 84 NNE 9 15 30.21 1023 10 16.0934 0 0
7:52 am 07:52 Cloudy 63 17.2 56 13.3 78 78 N 10 17 30.22 1023 10 16.0934 0 0
8:52 am 08:52 Cloudy 64 17.8 56 13.3 75 75 NNE 12 19 30.24 1024 10 16.0934 0 0
9:52 am 09:52 Cloudy 65 18.3 57 13.9 76 76 NNE 9 15 30.25 1024 10 16.0934 0 0
10:52 am 10:52 Cloudy 67 19.4 58 14.4 73 73 NE 12 19 30.25 1024 10 16.0934 0 0
11:52 am 11:52 Cloudy 69 20.6 58 14.4 68 68 NNE 9 15 30.25 1024 10 16.0934 0 0
12:52 pm 12:52 Cloudy 71 21.7 58 14.4 63 63 NE 9 15 30.23 1024 10 16.0934 0 0
1:52 pm 13:52 Cloudy 74 23.3 58 14.4 57 57 N 12 19 30.22 1024 10 16.0934 0 0
2:37 pm 14:37 Cloudy 73 23 57 14 57 57 NE 9 15 30.21 1023 10 16.0934 0 0
2:52 pm 14:52 Cloudy 72 22.2 58 14.4 61 61 NE 12 19 30.22 1023 10 16.0934 0 0
3:52 pm 15:52 Mostly Cloudy 73 22.8 57 13.9 57 57 NE 10 17 30.2 1023 10 16.0934 0 0
4:52 pm 16:52 Mostly Cloudy 74 23.3 58 14.4 57 57 NNE 10 17 30.19 1022 10 16.0934 0 0
5:52 pm 17:52 Mostly Cloudy 73 22.8 58 14.4 59 59 ENE 12 19 30.2 1023 10 16.0934 0 0
6:52 pm 18:52 Mostly Cloudy 71 21.7 58 14.4 63 63 NE 8 13 30.2 1023 10 16.0934 0 0
7:52 pm 19:52 Mostly Cloudy 71 21.7 58 14.4 63 63 NNE 10 17 30.21 1023 10 16.0934 0 0
8:52 pm 20:52 Cloudy 70 21.1 58 14.4 66 66 NNE 9 15 30.22 1023 10 16.0934 0 0
9:52 pm 21:52 Cloudy 69 20.6 58 14.4 68 68 NNE 10 17 30.22 1023 10 16.0934 0 0
10:52 pm 22:52 Mostly Cloudy 67 19.4 57 13.9 71 71 NNE 9 15 30.22 1024 10 16.0934 0 0
11:52 pm 23:52 Mostly Cloudy 67 19.4 57 13.9 71 71 N 9 15 30.22 1024 10 16.0934 0 0

Powered by AerisWeather